Powrót do katalogu

FENGYUN 1C DEB

LostSSO
NORAD 31268·DEBRIS·🇨🇳 China

Wystrzelony May 10, 1999 z Taiyuan Satellite Launch Center

Loading…

Następne Przeloty (najbliższe 24 godziny)

TLE

NieaktualneSource: Space-Track

Epoka: Aug 9, 2026, 08:19 UTC

1 31268U 99025BNA 26221.34680680  .00000453  00000-0  29434-3 0  9990
2 31268  98.7335 260.5468 0047902 227.8337 131.8760 14.06905590654013

Śledź FENGYUN 1C DEB w czasie rzeczywistym z AllMySat

Download on the App Store